This is the latest recevied weather packets stored in our database for station/object KF0FSA. If no packets are shown the sender has not sent any weather packets the latest 10 day(s).
| Time | Temp. | Humidity | Pressure | Rain* | Wind** | Luminosity | Snow |
|---|---|---|---|---|---|---|---|
| 1777219073 | 10.56° C | 77% | 960.5 hPa | 0 mm | - | 260 W/m² | - |
| 1777218773 | 10.56° C | 76% | 960.4 hPa | 0 mm | - | 288 W/m² | - |
| 1777218473 | 10.56° C | 76% | 960.3 hPa | 0 mm | - | 347 W/m² | - |
| 1777218297 | 10.56° C | 75% | 960.3 hPa | 0 mm | - | 373 W/m² | - |
| 1777217873 | 10.56° C | 75% | 959.8 hPa | 0 mm | - | 443 W/m² | - |
| 1777217573 | 10.56° C | 75% | 959.9 hPa | 0 mm | - | 454 W/m² | - |
| 1777217286 | 10.56° C | 76% | 959.6 hPa | 0 mm | - | 541 W/m² | - |
| 1777216973 | 10.56° C | 76% | 959.7 hPa | 0 mm | - | 493 W/m² | - |
| 1777216670 | 10.56° C | 76% | 959.8 hPa | 0 mm | - | 495 W/m² | - |
| 1777216370 | 10° C | 78% | 959.9 hPa | 0 mm | - | 659 W/m² | - |
| 1777216066 | 9.44° C | 79% | 960 hPa | 0 mm | - | 470 W/m² | - |
| 1777215892 | 8.89° C | 80% | 960.3 hPa | 0 mm | - | 491 W/m² | - |
| 1777215467 | 8.89° C | 81% | 960.6 hPa | 0 mm | - | 365 W/m² | - |
| 1777215168 | 8.33° C | 82% | 960.7 hPa | 0 mm | - | 301 W/m² | - |
| 1777214867 | 8.33° C | 83% | 961 hPa | 0 mm | - | 223 W/m² | - |
| 1777214691 | 7.78° C | 83% | 961.1 hPa | 0 mm | - | 199 W/m² | - |
| 1777214267 | 7.78° C | 83% | 961.2 hPa | 0 mm | - | 208 W/m² | - |
| 1777213967 | 7.78° C | 84% | 961.2 hPa | 0 mm | - | 188 W/m² | - |
| 1777213791 | 7.78° C | 83% | 961.2 hPa | 0 mm | - | 167 W/m² | - |
| 1777213367 | 7.78° C | 84% | 961.2 hPa | 0 mm | - | 168 W/m² | - |
| 1777213067 | 7.78° C | 84% | 961.2 hPa | 0 mm | - | 151 W/m² | - |
| 1777212768 | 7.78° C | 84% | 961.4 hPa | 0 mm | - | 141 W/m² | - |
| 1777212461 | 7.78° C | 84% | 961.6 hPa | 0 mm | - | 114 W/m² | - |
| 1777212162 | 7.22° C | 85% | 961.7 hPa | 0 mm | - | 120 W/m² | - |
| 1777211861 | 7.22° C | 85% | 961.7 hPa | 0 mm | - | 141 W/m² | - |
* Rain latest hour (hover to see other rain measurements)
** Current wind speed in m/s (hover to see current wind gust speed)